This demonstration page uses our WeatherBlox Daily Observations layout. Learn more.

Left ArrowRight Arrow

47.50024, -111.30081

Hourly Observations for October 5, 2019

Temp ( °F °C ) Dew Point ( °F °C ) Humidity (%) Winds ( mph kmh ) Pressure ( in mb ) Visibility ( mi km ) Precip ( " mm )
12:53 am 00:53 Mostly Clear 36 2.2 26 -3.3 67 67 SW 10 17 30.12 1020 10 16 0.00 0.00
1:53 am 01:53 Clear 36 2.2 27 -2.8 70 70 SW 12 19 30.12 1020 10 16 0.00 0.00
2:53 am 02:53 Clear 34 1.1 26 -3.3 73 73 SW 10 17 30.14 1021 10 16 0.00 0.00
3:53 am 03:53 Clear 36 2.2 27 -2.8 70 70 SW 12 19 30.12 1020 10 16 0.00 0.00
4:53 am 04:53 Clear 36 2.2 27 -2.8 70 70 SW 13 20 30.13 1020 10 16 0.00 0.00
5:53 am 05:53 Clear 36 2.2 28 -2.2 73 73 SW 13 20 30.15 1021 10 16 0.00 0.00
6:53 am 06:53 Clear 36 2.2 28 -2.2 73 73 SW 12 19 30.14 1021 10 16 0.00 0.00
7:53 am 07:53 Sunny 37 2.8 28 -2.2 70 70 WSW 12 19 30.14 1021 10 16 0.00 0.00
8:53 am 08:53 Sunny 41 5 30 -1.1 65 65 WSW 12 19 30.14 1021 10 16 0.00 0.00
9:53 am 09:53 Sunny 47 8.3 31 -0.6 54 54 SW 20 31 30.13 1020 10 16 0.00 0.00
10:53 am 10:53 Sunny 50 10 28 -2.2 43 43 WSW 28 44 30.10 1019 10 16 0.00 0.00
11:53 am 11:53 Mostly Cloudy 49 9.4 28 -2.2 44 44 WSW 24 39 30.10 1019 10 16 0.00 0.00
12:53 pm 12:53 Sunny 50 10 28 -2.2 43 43 WSW 17 28 30.10 1019 10 16 0.00 0.00
1:53 pm 13:53 Mostly Cloudy 51 10.6 28 -2.2 41 41 WSW 21 33 30.08 1019 10 16 0.00 0.00
2:53 pm 14:53 Mostly Cloudy 50 10 29 -1.7 44 44 WSW 18 30 30.09 1019 10 16 0.00 0.00
3:53 pm 15:53 Mostly Sunny 51 10.6 30 -1.1 44 44 SW 21 33 30.07 1018 10 16 0.00 0.00
4:53 pm 16:53 Sunny 49 9.4 30 -1.1 48 48 WSW 14 22 30.09 1019 10 16 0.00 0.00
5:53 pm 17:53 Cloudy 51 10.6 28 -2.2 41 41 WSW 15 24 30.10 1019 10 16 0.00 0.00
6:53 pm 18:53 Mostly Sunny 43 6.1 28 -2.2 56 56 WSW 12 19 30.14 1021 10 16 0.00 0.00
7:53 pm 19:53 Mostly Clear 41 5 28 -2.2 60 60 WSW 12 19 30.16 1021 10 16 0.00 0.00
8:53 pm 20:53 Clear 36 2.2 29 -1.7 76 76 SW 12 19 30.17 1022 10 16 0.00 0.00
9:53 pm 21:53 Clear 37 2.8 28 -2.2 70 70 SW 13 20 30.18 1022 10 16 0.00 0.00
10:53 pm 22:53 Mostly Cloudy 37 2.8 28 -2.2 70 70 SW 13 20 30.18 1022 10 16 0.00 0.00
11:53 pm 23:53 Mostly Clear 37 2.8 27 -2.8 67 67 SW 13 20 30.20 1023 10 16 0.00 0.00

Powered by AerisWeather